| time (UTC) | temp F | wind direction | speed knots | gust knots | rain 1hr in | rain 24hr in | rain mn in | humidity % | barometer mb |
| 20260505095310 | 53 | 13 | 2.6 | 8.7 | 0.08 | 1.21 | 1.21 | 99 | 1011.8 |
| 20260505094310 | 53 | 326 | 5.2 | 9.6 | 0.08 | 1.20 | 1.20 | 99 | 1011.7 |
| 20260505093310 | 53 | 68 | 2.6 | 6.1 | 0.08 | 1.19 | 1.19 | 99 | 1011.5 |
| 20260505092310 | 53 | 41 | 2.6 | 7.8 | 0.09 | 1.17 | 1.17 | 99 | 1011.6 |
| 20260505091310 | 53 | 51 | 2.6 | 7.0 | 0.09 | 1.16 | 1.16 | 99 | 1011.6 |
| 20260505090310 | 53 | 4 | 3.5 | 7.8 | 0.11 | 1.15 | 1.15 | 98 | 1011.5 |
| 20260505085310 | 53 | 314 | 2.6 | 8.7 | 0.13 | 1.13 | 1.13 | 98 | 1011.5 |
| 20260505084310 | 53 | 84 | 2.6 | 8.7 | 0.13 | 1.13 | 1.13 | 98 | 1011.6 |
| 20260505083310 | 53 | 4 | 4.3 | 8.7 | 0.16 | 1.11 | 1.11 | 98 | 1011.5 |
| 20260505082311 | 52 | 23 | 4.3 | 12.2 | 0.18 | 1.09 | 1.09 | 98 | 1011.4 |
| 20260505081310 | 52 | 1 | 3.5 | 6.1 | 0.20 | 1.06 | 1.06 | 98 | 1011.5 |
| 20260505080309 | 52 | 307 | 4.3 | 6.1 | 0.20 | 1.04 | 1.04 | 98 | 1011.5 |
| 20260505075310 | 51 | 1 | 1.7 | 4.3 | 0.20 | 1.01 | 1.01 | 98 | 1011.6 |
| 20260505074309 | 51 | 46 | 2.6 | 6.1 | 0.20 | 0.99 | 0.99 | 98 | 1011.5 |
| 20260505073309 | 51 | 348 | 3.5 | 7.8 | 0.20 | 0.95 | 0.95 | 98 | 1011.6 |
| 20260505072309 | 51 | 18 | 3.5 | 6.1 | 0.18 | 0.91 | 0.91 | 98 | 1011.5 |
| 20260505071309 | 51 | 354 | 2.6 | 5.2 | 0.15 | 0.87 | 0.87 | 98 | 1011.6 |
| 20260505070309 | 51 | 351 | 3.5 | 5.2 | 0.13 | 0.83 | 0.83 | 98 | 1011.6 |
| 20260505065309 | 51 | 353 | 3.5 | 6.1 | 0.13 | 0.81 | 0.81 | 98 | 1011.6 |
| 20260505063309 | 51 | 334 | 2.6 | 6.1 | 0.10 | 0.76 | 0.76 | 98 | 1011.7 |
| 20260505062309 | 51 | 295 | 3.5 | 7.0 | 0.09 | 0.72 | 0.72 | 98 | 1011.7 |
| 20260505061309 | 51 | 284 | 3.5 | 6.1 | 0.11 | 0.72 | 0.72 | 98 | 1011.6 |
| 20260505060311 | 51 | 13 | 2.6 | 7.0 | 0.11 | 0.70 | 0.70 | 97 | 1011.6 |
| 20260505055309 | 51 | 314 | 4.3 | 7.0 | 0.11 | 0.69 | 0.69 | 97 | 1011.6 |
| 20260505054309 | 51 | 300 | 3.5 | 6.1 | 0.10 | 0.67 | 0.67 | 97 | 1011.6 |
| 20260505053309 | 51 | 46 | 2.6 | 5.2 | 0.10 | 0.65 | 0.65 | 97 | 1011.8 |
| 20260505051309 | 50 | 321 | 2.6 | 5.2 | 0.06 | 0.61 | 0.61 | 97 | 1011.8 |
| 20260505050309 | 50 | 314 | 2.6 | 4.3 | 0.06 | 0.59 | 0.59 | 97 | 1011.8 |
| 20260505041310 | 51 | 322 | 2.6 | 7.8 | 0.12 | 0.54 | 0.54 | 97 | 1011.9 |
| 20260505040310 | 51 | 314 | 2.6 | 5.2 | 0.11 | 0.53 | 0.53 | 97 | 1012.1 |
| 20260505034310 | 51 | 1 | 3.5 | 7.0 | 0.07 | 0.47 | 0.47 | 97 | 1012.3 |
| 20260505033310 | 51 | 41 | 1.7 | 4.3 | 0.06 | 0.45 | 0.45 | 97 | 1012.3 |
| 20260505031310 | 51 | 319 | 1.7 | 4.3 | 0.08 | 0.43 | 0.43 | 97 | 1012.4 |
| 20260505030310 | 51 | 21 | 3.5 | 4.3 | 0.09 | 0.42 | 0.42 | 97 | 1012.4 |
| 20260505025310 | 51 | 311 | 1.7 | 5.2 | 0.09 | 0.41 | 0.41 | 97 | 1012.5 |
| 20260505024310 | 51 | 324 | 1.7 | 4.3 | 0.09 | 0.40 | 0.40 | 96 | 1012.5 |
| 20260505022310 | 52 | 314 | 1.7 | 5.2 | 0.08 | 0.36 | 0.36 | 96 | 1012.4 |
| 20260505021310 | 52 | 326 | 2.6 | 5.2 | 0.08 | 0.35 | 0.35 | 96 | 1012.4 |
| 20260505020310 | 52 | 302 | 2.6 | 4.3 | 0.09 | 0.33 | 0.33 | 96 | 1012.5 |
| 20260505014310 | 52 | 1 | 1.7 | 4.3 | 0.13 | 0.31 | 0.31 | 96 | 1012.7 |
| 20260505011310 | 53 | 327 | 2.6 | 6.1 | 0.14 | 0.27 | 0.27 | 96 | 1012.8 |
| 20260505010310 | 53 | 354 | 2.6 | 6.1 | 0.13 | 0.24 | 0.24 | 96 | 1012.9 |
| 20260505005310 | 53 | 13 | 3.5 | 5.2 | 0.12 | 0.22 | 0.22 | 96 | 1012.9 |
| 20260505004310 | 53 | 354 | 4.3 | 7.0 | 0.10 | 0.19 | 0.19 | 95 | 1013.0 |
| 20260505003310 | 53 | 4 | 4.3 | 9.6 | 0.09 | 0.17 | 0.17 | 95 | 1013.1 |
| 20260505002310 | 53 | 314 | 4.3 | 7.0 | 0.09 | 0.14 | 0.14 | 95 | 1013.2 |
| 20260505001310 | 53 | 14 | 3.5 | 7.0 | 0.09 | 0.13 | 0.13 | 95 | 1013.3 |
| 20260505000310 | 54 | 327 | 2.6 | 7.0 | 0.09 | 0.12 | 0.12 | 94 | 1013.2 |
| 20260504235310 | 54 | 300 | 2.6 | 5.2 | 0.08 | 0.10 | 0.10 | 94 | 1013.4 |
| 20260504232310 | 54 | 1 | 0.9 | 3.5 | 0.04 | 0.05 | 0.05 | 93 | 1013.5 |
| 20260504231310 | 54 | 302 | 0.9 | 1.7 | 0.04 | 0.04 | 0.04 | 93 | 1013.5 |
| 20260504224310 | 55 | 331 | 1.7 | 4.3 | 0.02 | 0.02 | 0.02 | 92 | 1013.4 |
| 20260504223310 | 55 | 11 | 2.6 | 5.2 | 0.01 | 0.01 | 0.01 | 92 | 1013.5 |
| 20260504221309 | 55 | 300 | 1.7 | 2.6 | 0.00 | 0.00 | 0.00 | 91 | 1013.5 |
| 20260504220310 | 55 | 327 | 0.9 | 1.7 | 0.00 | 0.00 | 0.00 | 91 | 1013.6 |
| 20260504215310 | 55 | 306 | 1.7 | 2.6 | 0.00 | 0.00 | 0.00 | 91 | 1013.6 |
| 20260504214309 | 55 | 1 | 1.7 | 2.6 | 0.00 | 0.00 | 0.00 | 91 | 1013.6 |
| 20260504213309 | 55 | 1 | 0.9 | 3.5 | 0.00 | 0.00 | 0.00 | 91 | 1013.7 |
| 20260504210309 | 55 | 331 | 3.5 | 5.2 | 0.00 | 0.00 | 0.00 | 91 | 1013.9 |
| 20260504205309 | 55 | 330 | 1.7 | 4.3 | 0.00 | 0.00 | 0.00 | 91 | 1013.9 |
| 20260504204309 | 55 | 331 | 1.7 | 3.5 | 0.00 | 0.00 | 0.00 | 91 | 1013.9 |
| 20260504203310 | 55 | 322 | 1.7 | 2.6 | 0.00 | 0.00 | 0.00 | 91 | 1013.9 |
| 20260504201310 | 56 | 309 | 2.6 | 4.3 | 0.00 | 0.00 | 0.00 | 90 | 1013.8 |
| 20260504195309 | 56 | 327 | 2.6 | 6.1 | 0.00 | 0.00 | 0.00 | 90 | 1013.5 |
| 20260504192309 | 56 | 328 | 2.6 | 4.3 | 0.00 | 0.00 | 0.00 | 90 | 1013.6 |
| 20260504191309 | 56 | 276 | 1.7 | 3.5 | 0.00 | 0.00 | 0.00 | 89 | 1013.4 |
| 20260504190309 | 56 | 307 | 2.6 | 4.3 | 0.00 | 0.00 | 0.00 | 89 | 1013.2 |
| 20260504185309 | 56 | 1 | 1.7 | 4.3 | 0.00 | 0.00 | 0.00 | 89 | 1013.2 |
| 20260504184309 | 56 | 324 | 1.7 | 4.3 | 0.00 | 0.00 | 0.00 | 89 | 1013.2 |
| 20260504183309 | 56 | 1 | 0.9 | 4.3 | 0.00 | 0.00 | 0.00 | 89 | 1013.2 |
| 20260504182309 | 56 | 347 | 0.9 | 3.5 | 0.00 | 0.00 | 0.00 | 89 | 1013.4 |
| 20260504181309 | 56 | 11 | 1.7 | 4.3 | 0.00 | 0.00 | 0.00 | 89 | 1013.3 |
| 20260504180309 | 56 | 347 | 1.7 | 3.5 | 0.00 | 0.00 | 0.00 | 89 | 1013.2 |
| 20260504175309 | 56 | 68 | 2.6 | 4.3 | 0.00 | 0.00 | 0.00 | 89 | 1013.1 |
| 20260504174309 | 56 | 72 | 3.5 | 5.2 | 0.00 | 0.00 | 0.00 | 89 | 1013.2 |
| 20260504172309 | 56 | 100 | 3.5 | 6.1 | 0.00 | 0.00 | 0.00 | 89 | 1013.1 |
| 20260504171309 | 56 | 63 | 3.5 | 6.1 | 0.00 | 0.00 | 0.00 | 88 | 1013.0 |
| 20260504170309 | 56 | 51 | 2.6 | 7.0 | 0.00 | 0.00 | 0.00 | 88 | 1013.0 |
| 20260504160309 | 58 | 25 | 1.7 | 4.3 | 0.00 | 0.00 | 0.00 | 87 | 1013.2 |
| 20260504150309 | 59 | 72 | 3.5 | 8.7 | 0.00 | 0.00 | 0.00 | 86 | 1013.1 |
| 20260504141309 | 59 | 27 | 5.2 | 8.7 | 0.00 | 0.00 | 0.00 | 85 | 1013.4 |
| 20260504140310 | 59 | 98 | 3.5 | 6.1 | 0.00 | 0.00 | 0.00 | 85 | 1013.6 |
| 20260504130310 | 59 | 93 | 4.3 | 9.6 | 0.00 | 0.00 | 0.00 | 85 | 1013.7 |
| 20260504120310 | 58 | 53 | 4.3 | 8.7 | 0.00 | 0.00 | 0.00 | 87 | 1013.7 |
| 20260504110309 | 59 | 81 | 4.3 | 8.7 | 0.00 | 0.00 | 0.00 | 88 | 1014.2 |